FW8624 Weather Reports


time (UTC)temp
F
wind
direction
speed
knots
gust
knots
rain 1hr
in
rain 24hr
in
rain mn
in
humidity
%
barometer
mb
20210927060010 58 341 0.0 1.7 0.00 0.00 0.00 90 1019.9
20210927054523 58 0 0.0 0.0 0.00 0.00 0.00 91 1020.0
20210927053019 58 0 0.0 0.0 0.00 0.00 0.00 91 1019.9
20210927051513 58 0 0.0 0.0 0.00 0.00 0.00 90 1019.9
20210927050028 59 0 0.0 0.0 0.00 0.00 0.00 90 1019.9
20210927044526 59 0 0.0 0.0 0.00 0.00 0.00 90 1019.9
20210927043011 59 0 0.0 0.0 0.00 0.00 0.00 90 1020.0
20210927041541 59 0 0.0 0.0 0.00 0.00 0.00 90 1020.0
20210927040014 59 0 0.0 0.0 0.00 0.00 0.00 90 1020.0
20210927034511 60 0 0.0 0.0 0.00 0.00 0.00 90 1020.0
20210927033017 60 0 0.0 0.0 0.00 0.00 0.00 90 1019.9
20210927031531 60 0 0.0 0.0 0.00 0.00 0.00 89 1019.9
20210927030009 60 0 0.0 0.0 0.00 0.00 0.00 88 1020.0
20210927024515 61 0 0.0 0.0 0.00 0.00 0.00 89 1020.0
20210927023015 61 0 0.0 0.0 0.00 0.00 0.00 88 1019.9
20210927021528 61 0 0.0 0.0 0.00 0.00 0.00 87 1019.8
20210927020012 61 0 0.0 0.0 0.00 0.00 0.00 87 1019.8
20210927014541 62 0 0.0 0.0 0.00 0.00 0.00 87 1019.7
20210927013016 62 0 0.0 0.0 0.00 0.00 0.00 86 1019.6
20210927011512 63 0 0.0 0.0 0.00 0.00 0.00 84 1019.6
20210927010014 63 0 0.0 0.0 0.00 0.00 0.00 83 1019.5
20210927004536 63 0 0.0 0.0 0.00 0.00 0.00 81 1019.3
20210927003024 64 0 0.0 0.0 0.00 0.00 0.00 80 1019.2
20210927001517 65 0 0.0 0.0 0.00 0.00 0.00 79 1019.0
20210927000012 65 0 0.0 0.9 0.00 0.00 0.00 76 1018.8
20210926234512 66 0 0.0 0.0 0.00 0.00 0.00 76 1018.6
20210926233037 66 0 0.0 0.9 0.00 0.00 0.00 75 1018.5
20210926231522 68 0 0.0 0.9 0.00 0.00 0.00 73 1018.4
20210926230026 69 0 0.0 0.9 0.00 0.00 0.00 71 1018.3
20210926224514 71 0 0.0 1.7 0.00 0.00 0.00 68 1018.0
20210926223019 74 32 0.9 2.6 0.00 0.00 0.00 54 1018.0
20210926221509 76 5 0.0 3.5 0.00 0.00 0.00 51 1017.9
20210926220019 76 26 0.0 5.2 0.00 0.00 0.00 50 1017.6
20210926214518 76 339 0.9 4.3 0.00 0.00 0.00 49 1017.5
20210926213027 76 344 2.6 7.0 0.00 0.00 0.00 49 1017.4
20210926211527 77 341 1.7 5.2 0.00 0.00 0.00 47 1017.5
20210926210011 77 62 1.7 7.0 0.00 0.00 0.00 49 1017.5
20210926204518 76 341 2.6 9.6 0.00 0.00 0.00 51 1017.4
20210926203012 76 325 0.9 8.7 0.00 0.00 0.00 51 1017.3
20210926201519 77 346 3.5 7.8 0.00 0.00 0.00 51 1017.3
20210926200024 77 355 4.3 8.7 0.00 0.00 0.00 49 1017.3
20210926194559 76 38 1.7 10.4 0.00 0.00 0.00 51 1017.4
20210926193011 76 24 2.6 8.7 0.00 0.00 0.00 51 1017.5
20210926191533 76 335 3.5 7.8 0.00 0.00 0.00 50 1017.6
20210926190021 76 328 3.5 10.4 0.00 0.00 0.00 50 1017.6
20210926184513 76 338 5.2 9.6 0.00 0.00 0.00 49 1017.6
20210926183101 76 344 5.2 11.3 0.00 0.00 0.00 50 1017.8
20210926181515 76 345 5.2 10.4 0.00 0.00 0.00 49 1017.9
20210926180015 75 352 6.1 13.0 0.00 0.00 0.00 51 1018.2
20210926174524 75 300 6.1 11.3 0.00 0.00 0.00 50 1018.4
20210926173010 75 360 3.5 7.8 0.00 0.00 0.00 53 1018.6
20210926171513 74 352 4.3 11.3 0.00 0.00 0.00 55 1018.7
20210926170009 74 307 6.1 11.3 0.00 0.00 0.00 54 1018.9
20210926164550 74 337 7.0 14.8 0.00 0.00 0.00 53 1019.0
20210926163013 73 339 5.2 11.3 0.00 0.00 0.00 55 1019.0
20210926161540 73 294 5.2 9.6 0.00 0.00 0.00 55 1019.2
20210926160013 73 324 6.1 11.3 0.00 0.00 0.00 57 1019.2
20210926154530 73 343 5.2 11.3 0.00 0.00 0.00 56 1019.4
20210926153034 73 337 5.2 11.3 0.00 0.00 0.00 57 1019.3
20210926151514 72 334 6.1 9.6 0.00 0.00 0.00 56 1019.3
20210926150034 72 38 4.3 10.4 0.00 0.00 0.00 57 1019.3
20210926144512 72 15 4.3 10.4 0.00 0.00 0.00 59 1019.5
20210926143052 71 352 3.5 9.6 0.00 0.00 0.00 62 1019.3
20210926141512 70 16 5.2 10.4 0.00 0.00 0.00 63 1019.4
20210926140028 69 33 5.2 11.3 0.00 0.00 0.00 69 1019.3
20210926134610 68 350 4.3 10.4 0.00 0.00 0.00 73 1019.1
20210926133012 67 9 3.5 10.4 0.00 0.00 0.00 75 1019.1
20210926131545 66 5 5.2 9.6 0.00 0.00 0.00 76 1019.1
20210926130010 65 350 4.3 8.7 0.00 0.00 0.00 77 1018.8
20210926124548 64 337 3.5 7.8 0.00 0.00 0.00 79 1018.6
20210926123012 62 318 4.3 7.8 0.00 0.00 0.00 81 1018.4
20210926121518 61 329 3.5 7.0 0.00 0.00 0.00 82 1018.3
20210926120109 61 339 2.6 7.0 0.00 0.00 0.00 82 1018.3
20210926114535 60 340 2.6 7.0 0.00 0.00 0.00 83 1018.1
20210926113033 59 325 4.3 7.8 0.00 0.00 0.00 83 1017.9
20210926111513 59 336 3.5 7.8 0.00 0.00 0.00 84 1017.7
20210926110032 59 333 3.5 7.0 0.00 0.00 0.00 83 1017.6
20210926104515 59 339 1.7 4.3 0.00 0.00 0.00 83 1017.5
20210926103022 59 327 1.7 3.5 0.00 0.00 0.00 82 1017.4
20210926101512 60 331 2.6 7.0 0.00 0.00 0.00 81 1017.1
20210926100017 60 315 1.7 7.0 0.00 0.00 0.00 80 1017.1
20210926094600 60 340 2.6 7.0 0.00 0.00 0.00 79 1017.0
20210926093026 61 350 3.5 7.8 0.00 0.00 0.00 77 1016.7
20210926091510 61 326 1.7 6.1 0.00 0.00 0.00 77 1016.6
20210926090010 62 323 1.7 6.1 0.00 0.00 0.00 75 1016.3
20210926084512 61 304 0.9 3.5 0.00 0.00 0.00 75 1016.3
20210926083011 61 346 1.7 3.5 0.00 0.00 0.00 76 1016.2
20210926081519 62 329 1.7 3.5 0.00 0.00 0.00 76 1016.4
20210926080021 61 304 1.7 4.3 0.00 0.00 0.00 78 1016.3
20210926074518 61 300 1.7 3.5 0.00 0.00 0.00 80 1016.3
20210926073028 60 327 1.7 3.5 0.00 0.00 0.00 85 1016.2
20210926071533 59 0 0.0 0.0 0.00 0.00 0.00 90 1016.2
20210926070035 59 0 0.0 0.0 0.00 0.00 0.00 89 1016.3
20210926064521 59 0 0.0 0.0 0.00 0.00 0.00 90 1016.2
20210926063019 59 0 0.0 0.0 0.00 0.00 0.00 90 1016.3
20210926061536 59 0 0.0 0.0 0.00 0.00 0.00 90 1016.4